Date String (YYYY-MM-DD hh:mm:ss) UTC,Instrument flags,absolute air pressure of the measurement (hPa),sample flow rate (lpm),inlet stack bypass flow (lpm),air temperature of the measurement (°C),ambient temperature measured by the external sensor (°C),aerosol sample conditioner tube jacket temperature (°C),OPC LED temperature (°C),internal box temperature (°C),relative humidity of the measurement (%),span deviation,mass concentration of particles derived from Lorenz-Mie calculation of OPC scattering (μg/m³),mass concentration of particles derived from Lorenz-Mie calculation of OPC scattering (μg/m³),mass concentration of particles derived from Lorenz-Mie calculation of OPC scattering (μg/m³)
DateTimeUTC,F1_M11,P_M11,Q1_M11,Q2_M11,T1_M11,T2_M11,T3_M11,T4_M11,T5_M11,U1_M11,ZSPAN_M11,X0_M11,X2_M11,X1_M11
2024-03-02 13:00:00,SystemResetWarning,0818.9,5.00,000.00,021.5,020.6,000.0,030.0,023.2,09.4,0000.0,0003.41,0001.56,0000.92
2024-03-02 13:01:00,SystemResetWarning,0819.0,5.01,000.00,021.5,020.6,000.0,030.0,023.2,09.5,0000.0,0004.37,0001.59,0000.91
2024-03-02 13:02:00,SystemResetWarning,0819.0,5.00,000.00,021.4,020.5,000.0,030.0,023.2,09.2,0000.0,0004.45,0001.64,0000.90
2024-03-02 13:03:00,SystemResetWarning,0819.0,5.00,000.00,021.4,020.5,000.0,029.9,023.2,09.1,0000.0,0004.34,0001.63,0000.89
2024-03-02 13:04:00,SystemResetWarning,0818.9,5.00,000.00,021.4,020.5,000.0,029.9,023.2,09.1,0000.0,0004.18,0001.57,0000.88
2024-03-02 13:05:00,SystemResetWarning,0819.0,4.99,000.00,021.4,020.5,000.0,029.9,023.2,09.0,0000.0,0004.50,0001.57,0000.88
2024-03-02 13:06:00,SystemResetWarning,0818.9,5.00,000.00,021.4,020.6,000.0,029.9,023.2,09.2,0000.0,0006.59,0001.55,0000.87
2024-03-02 13:07:00,SystemResetWarning,0818.9,4.99,000.00,021.4,020.5,000.0,029.9,023.1,09.7,0000.0,0007.45,0001.48,0000.85
2024-03-02 13:08:00,SystemResetWarning,0819.0,5.00,000.00,021.4,020.5,000.0,029.9,023.1,09.2,0000.0,0007.56,0001.50,0000.85
2024-03-02 13:09:00,SystemResetWarning,0818.9,5.00,000.00,021.4,020.5,000.0,029.9,023.1,09.1,0000.0,0007.69,0001.53,0000.85
2024-03-02 13:10:00,SystemResetWarning,0819.1,4.99,000.00,021.4,020.5,000.0,029.9,023.1,09.0,0000.0,0007.54,0001.49,0000.85
2024-03-02 13:11:00,SystemResetWarning,0819.4,4.99,000.00,021.4,020.5,000.0,029.8,023.1,09.0,0000.0,0007.28,0001.46,0000.85
2024-03-02 13:12:00,SystemResetWarning,0819.3,5.00,000.00,021.4,020.5,000.0,029.8,023.1,09.0,0000.0,0006.34,0001.42,0000.86
2024-03-02 13:13:00,SystemResetWarning,0819.4,5.01,000.00,021.3,020.5,000.0,029.8,023.1,09.1,0000.0,0006.74,0001.41,0000.86
2024-03-02 13:14:00,SystemResetWarning,0819.3,5.01,000.00,021.3,020.5,000.0,029.8,023.1,09.1,0000.0,0007.55,0001.40,0000.87
2024-03-02 13:15:00,SystemResetWarning,0819.4,5.00,000.00,021.3,020.4,000.0,029.8,023.0,09.0,0000.0,0007.79,0001.49,0000.87
2024-03-02 13:16:00,SystemResetWarning,0819.3,5.00,000.00,021.3,020.4,000.0,029.8,023.0,08.9,0000.0,0007.68,0001.48,0000.87
2024-03-02 13:17:00,SystemResetWarning,0819.4,5.00,000.00,021.3,020.4,000.0,029.8,023.0,09.0,0000.0,0006.05,0001.48,0000.87
2024-03-02 13:18:00,SystemResetWarning,0819.2,4.99,000.00,021.3,020.4,000.0,029.8,023.0,09.0,0000.0,0004.86,0001.51,0000.88
2024-03-02 13:19:00,SystemResetWarning,0819.4,5.00,000.00,021.3,020.4,000.0,029.8,023.0,09.2,0000.0,0004.62,0001.50,0000.88
2024-03-02 13:20:00,SystemResetWarning,0819.4,5.00,000.00,021.3,020.4,000.0,029.8,023.0,09.4,0000.0,0004.36,0001.47,0000.87
2024-03-02 13:21:00,SystemResetWarning,0819.3,5.00,000.00,021.3,020.4,000.0,029.8,023.0,09.1,0000.0,0004.53,0001.50,0000.87
2024-03-02 13:22:00,SystemResetWarning,0819.1,5.01,000.00,021.3,020.4,000.0,029.8,023.0,09.0,0000.0,0004.67,0001.54,0000.87
2024-03-02 13:23:00,SystemResetWarning,0818.9,5.00,000.00,021.3,020.4,000.0,029.8,023.0,08.9,0000.0,0004.80,0001.57,0000.88
2024-03-02 13:24:00,SystemResetWarning,0818.8,4.99,000.00,021.2,020.4,000.0,029.8,023.0,08.9,0000.0,0004.86,0001.56,0000.89
2024-03-02 13:25:00,SystemResetWarning,0818.8,4.99,000.00,021.2,020.4,000.0,029.7,023.0,08.9,0000.0,0003.70,0001.55,0000.89
2024-03-02 13:26:00,SystemResetWarning,0818.8,5.00,000.00,021.2,020.4,000.0,029.7,023.0,08.8,0000.0,0003.17,0001.48,0000.89
2024-03-02 13:27:00,SystemResetWarning,0818.8,5.00,000.00,021.2,020.4,000.0,029.7,023.0,08.8,0000.0,0003.11,0001.47,0000.88
2024-03-02 13:28:00,SystemResetWarning,0819.2,5.00,000.00,021.2,020.3,000.0,029.7,023.0,08.8,0000.0,0003.16,0001.51,0000.89
2024-03-02 13:29:00,SystemResetWarning,0819.4,5.01,000.00,021.2,020.3,000.0,029.7,022.9,08.9,0000.0,0003.02,0001.48,0000.89
2024-03-02 13:30:00,SystemResetWarning,0819.4,5.00,000.00,021.2,020.3,000.0,029.7,022.9,08.9,0000.0,0003.09,0001.51,0000.90
2024-03-02 13:31:00,SystemResetWarning,0819.4,5.01,000.00,021.2,020.3,000.0,029.7,022.9,08.9,0000.0,0003.53,0001.56,0000.92
2024-03-02 13:32:00,SystemResetWarning,0819.3,5.00,000.00,021.2,020.3,000.0,029.7,022.9,08.9,0000.0,0003.41,0001.54,0000.91
2024-03-02 13:33:00,SystemResetWarning,0818.8,4.99,000.00,021.2,020.3,000.0,029.7,022.9,08.9,0000.0,0003.81,0001.54,0000.90
2024-03-02 13:34:00,SystemResetWarning,0819.0,4.99,000.00,021.2,020.3,000.0,029.7,022.9,08.9,0000.0,0003.73,0001.50,0000.89
2024-03-02 13:35:00,SystemResetWarning,0819.2,5.00,000.00,021.2,020.3,000.0,029.6,022.9,08.8,0000.0,0003.72,0001.50,0000.89
2024-03-02 13:36:00,SystemResetWarning,0819.4,5.02,000.00,021.2,020.3,000.0,029.6,022.9,08.9,0000.0,0003.86,0001.58,0000.89
2024-03-02 13:37:00,SystemResetWarning,0819.3,5.00,000.00,021.2,020.3,000.0,029.6,022.9,09.2,0000.0,0004.12,0001.67,0000.90
2024-03-02 13:38:00,SystemResetWarning,0819.0,5.00,000.00,021.2,020.3,000.0,029.6,022.9,09.3,0000.0,0004.25,0001.74,0000.90
2024-03-02 13:39:00,SystemResetWarning,0818.9,5.00,000.00,021.2,020.3,000.0,029.6,022.9,09.3,0000.0,0004.24,0001.75,0000.90
2024-03-02 13:40:00,SystemResetWarning,0819.1,5.00,000.00,021.2,020.3,000.0,029.6,022.9,09.4,0000.0,0004.39,0001.77,0000.91
2024-03-02 13:41:00,SystemResetWarning,0819.3,5.00,000.00,021.1,020.3,000.0,029.6,022.8,09.2,0000.0,0004.51,0001.81,0000.90
2024-03-02 13:42:00,SystemResetWarning,0818.8,5.00,000.00,021.1,020.3,000.0,029.6,022.8,09.2,0000.0,0004.23,0001.81,0000.89
2024-03-02 13:43:00,SystemResetWarning,0818.9,5.00,000.00,021.1,020.2,000.0,029.5,022.8,09.1,0000.0,0004.26,0001.81,0000.90
2024-03-02 13:44:00,SystemResetWarning,0818.9,5.00,000.00,021.1,020.2,000.0,029.5,022.8,09.0,0000.0,0003.88,0001.81,0000.91
2024-03-02 13:45:00,SystemResetWarning,0818.9,5.01,000.00,021.1,020.2,000.0,029.5,022.8,09.0,0000.0,0003.85,0001.83,0000.91
2024-03-02 13:46:00,SystemResetWarning,0818.8,5.00,000.00,021.1,020.2,000.0,029.5,022.8,09.0,0000.0,0003.79,0001.82,0000.91
2024-03-02 13:47:00,SystemResetWarning,0818.8,5.01,000.00,021.1,020.2,000.0,029.5,022.8,08.9,0000.0,0004.02,0001.71,0000.91
2024-03-02 13:48:00,SystemResetWarning,0818.8,5.01,000.00,021.1,020.2,000.0,029.5,022.8,09.0,0000.0,0003.96,0001.62,0000.91
2024-03-02 13:49:00,SystemResetWarning,0818.8,5.00,000.00,021.1,020.2,000.0,029.5,022.8,08.9,0000.0,0003.99,0001.60,0000.92
2024-03-02 13:50:00,SystemResetWarning,0818.8,5.00,000.00,021.1,020.2,000.0,029.5,022.8,08.9,0000.0,0004.08,0001.56,0000.91
2024-03-02 13:51:00,SystemResetWarning,0818.8,4.99,000.00,021.1,020.2,000.0,029.5,022.8,08.8,0000.0,0003.88,0001.52,0000.91
2024-03-02 13:52:00,SystemResetWarning,0818.7,4.99,000.00,021.1,020.2,000.0,029.5,022.8,08.8,0000.0,0003.83,0001.52,0000.92
2024-03-02 13:53:00,SystemResetWarning,0818.7,5.00,000.00,021.1,020.2,000.0,029.5,022.8,08.6,0000.0,0003.92,0001.51,0000.93
2024-03-02 13:54:00,SystemResetWarning,0818.7,5.00,000.00,021.1,020.2,000.0,029.5,022.7,08.6,0000.0,0004.44,0001.54,0000.94
2024-03-02 13:55:00,SystemResetWarning,0818.7,5.01,000.00,021.1,020.2,000.0,029.4,022.8,08.6,0000.0,0005.32,0001.56,0000.94
2024-03-02 13:56:00,SystemResetWarning,0818.7,4.99,000.00,021.0,020.2,000.0,029.4,022.8,08.7,0000.0,0006.23,0001.58,0000.94
2024-03-02 13:57:00,SystemResetWarning,0818.7,4.99,000.00,021.0,020.2,000.0,029.4,022.8,08.7,0000.0,0006.43,0001.60,0000.95
2024-03-02 13:58:00,SystemResetWarning,0818.7,5.01,000.00,021.0,020.2,000.0,029.4,022.7,08.8,0000.0,0006.19,0001.63,0000.96
2024-03-02 13:59:00,SystemResetWarning,0818.7,5.02,000.00,021.0,020.2,000.0,029.4,022.7,08.9,0000.0,0005.96,0001.65,0000.96
